When you browse on this site, cookies collect data to enhance your experience and personalize the content and advertising you see.
Visit our Privacy Policy to learn more. By continuing to use the site, you agree to this use of cookies and data.
  • In Österreich
  • Länderverzeichnis
  • Für 7 Tage
  • Wassertemperatur
  • Wetterkarte
  • News
  • Widgets
  • user-avatar
    Anmelden

    Stündliche Wetter Roatán Town

    Heute, 19 Februar, Mittwoch

    Zeit Temperatur Niederschläge Wind Luftdruck Luftfeuchtigkeit
    00:00 +29°C° 0 mm 13 m/S 758 mmHg 78%
    01:00 +29°C° 0 mm 12 m/S 758 mmHg 77%
    02:00 +29°C° 0 mm 12 m/S 758 mmHg 77%
    03:00 +29°C° 0 mm 11 m/S 758 mmHg 76%
    04:00 +29°C° 0 mm 11 m/S 759 mmHg 75%
    05:00 +29°C° 0 mm 10 m/S 759 mmHg 75%
    06:00 +29°C° 0 mm 9 m/S 759 mmHg 74%
    07:00 +29°C° 0 mm 9 m/S 760 mmHg 75%
    08:00 +29°C° 0 mm 8 m/S 761 mmHg 75%
    09:00 +29°C° 0 mm 7 m/S 761 mmHg 76%
    10:00 +29°C° 0 mm 7 m/S 761 mmHg 77%
    11:00 +29°C° 0 mm 7 m/S 760 mmHg 78%
    12:00 +29°C° 0 mm 8 m/S 760 mmHg 79%
    13:00 +29°C° 0 mm 8 m/S 760 mmHg 79%
    14:00 +29°C° 0 mm 9 m/S 759 mmHg 80%
    15:00 +29°C° 0 mm 9 m/S 758 mmHg 81%
    16:00 +29°C° 0 mm 9 m/S 759 mmHg 81%
    17:00 +29°C° 0 mm 9 m/S 759 mmHg 82%
    18:00 +29°C° 0 mm 9 m/S 759 mmHg 83%
    19:00 +29°C° 0 mm 9 m/S 759 mmHg 83%
    20:00 +29°C° 0 mm 9 m/S 760 mmHg 82%
    21:00 +29°C° 0 mm 9 m/S 760 mmHg 82%
    22:00 +29°C° 0 mm 9 m/S 760 mmHg 82%
    23:00 +29°C° 0 mm 9 m/S 760 mmHg 81%

    Morgen, 20 Februar, Donnerstag

    Zeit Temperatur Niederschläge Wind Luftdruck Luftfeuchtigkeit
    00:00 +29°C° 0 mm 9 m/S 760 mmHg 80%
    01:00 +29°C° 0.1 mm 8 m/S 760 mmHg 80%
    02:00 +29°C° 0.1 mm 8 m/S 759 mmHg 80%
    03:00 +28°C° 0.1 mm 8 m/S 759 mmHg 80%
    04:00 +28°C° 0.1 mm 7 m/S 759 mmHg 80%
    05:00 +28°C° 0.1 mm 7 m/S 759 mmHg 80%
    06:00 +28°C° 0.1 mm 6 m/S 760 mmHg 80%
    07:00 +28°C° 0.1 mm 6 m/S 760 mmHg 80%
    08:00 +28°C° 0.1 mm 6 m/S 761 mmHg 79%
    09:00 +28°C° 0.1 mm 6 m/S 761 mmHg 79%
    10:00 +28°C° 0 mm 5 m/S 761 mmHg 79%
    11:00 +28°C° 0 mm 5 m/S 760 mmHg 79%
    12:00 +28°C° 0 mm 5 m/S 760 mmHg 79%
    13:00 +29°C° 0 mm 5 m/S 759 mmHg 79%
    14:00 +29°C° 0 mm 6 m/S 759 mmHg 79%
    15:00 +29°C° 0 mm 6 m/S 759 mmHg 79%
    16:00 +29°C° 0 mm 6 m/S 759 mmHg 80%
    17:00 +29°C° 0 mm 6 m/S 759 mmHg 80%
    18:00 +29°C° 0 mm 6 m/S 759 mmHg 81%
    19:00 +29°C° 0 mm 6 m/S 760 mmHg 81%
    20:00 +29°C° 0 mm 6 m/S 760 mmHg 81%
    21:00 +29°C° 0 mm 5 m/S 761 mmHg 81%
    22:00 +28°C° 0 mm 5 m/S 761 mmHg 81%
    23:00 +28°C° 0 mm 4 m/S 761 mmHg 81%

    übermorgen, 21 Februar, Freitag

    Zeit Temperatur Niederschläge Wind Luftdruck Luftfeuchtigkeit
    00:00 +28°C° 0 mm 4 m/S 761 mmHg 81%
    07:00 +28°C° 0.3 mm 3 m/S 761 mmHg 77%
    08:00 +28°C° 0.3 mm 3 m/S 762 mmHg 78%
    09:00 +28°C° 0.3 mm 4 m/S 762 mmHg 78%
    10:00 +28°C° 0.1 mm 3 m/S 762 mmHg 77%
    11:00 +28°C° 0.1 mm 3 m/S 762 mmHg 75%
    12:00 +28°C° 0.1 mm 3 m/S 762 mmHg 74%
    13:00 +29°C° 0.1 mm 3 m/S 761 mmHg 73%
    14:00 +29°C° 0.1 mm 3 m/S 761 mmHg 73%
    15:00 +29°C° 0.1 mm 3 m/S 760 mmHg 72%
    16:00 +28°C° 0.5 mm 3 m/S 760 mmHg 74%
    17:00 +28°C° 0.5 mm 4 m/S 761 mmHg 75%
    18:00 +28°C° 0.5 mm 4 m/S 761 mmHg 76%
    19:00 +28°C° 0.7 mm 4 m/S 761 mmHg 77%
    20:00 +28°C° 0.7 mm 4 m/S 762 mmHg 77%
    21:00 +28°C° 0.7 mm 4 m/S 762 mmHg 78%
    22:00 +28°C° 2.2 mm 5 m/S 762 mmHg 77%
    23:00 +28°C° 2.2 mm 5 m/S 762 mmHg 77%

    22 Februar, Samstag

    Zeit Temperatur Niederschläge Wind Luftdruck Luftfeuchtigkeit
    00:00 +28°C° 2.2 mm 6 m/S 762 mmHg 77%
    01:00 +28°C° 1.6 mm 6 m/S 762 mmHg 77%
    02:00 +28°C° 1.6 mm 6 m/S 761 mmHg 77%
    03:00 +28°C° 1.6 mm 7 m/S 761 mmHg 77%
    04:00 +28°C° 0.5 mm 6 m/S 761 mmHg 77%
    05:00 +28°C° 0.5 mm 6 m/S 762 mmHg 77%
    06:00 +28°C° 0.5 mm 5 m/S 762 mmHg 77%
    07:00 +28°C° 0.5 mm 5 m/S 762 mmHg 77%
    08:00 +28°C° 0.5 mm 5 m/S 763 mmHg 77%
    09:00 +28°C° 0.5 mm 5 m/S 763 mmHg 77%
    10:00 +28°C° 0.9 mm 5 m/S 763 mmHg 77%
    11:00 +28°C° 0.9 mm 6 m/S 762 mmHg 77%
    12:00 +28°C° 0.9 mm 7 m/S 762 mmHg 78%
    13:00 +28°C° 0.5 mm 7 m/S 761 mmHg 77%
    14:00 +28°C° 0.5 mm 7 m/S 761 mmHg 77%
    15:00 +28°C° 0.5 mm 7 m/S 760 mmHg 77%
    16:00 +28°C° 0.6 mm 7 m/S 761 mmHg 78%
    17:00 +27°C° 0.6 mm 8 m/S 761 mmHg 78%
    18:00 +27°C° 0.6 mm 8 m/S 761 mmHg 79%
    19:00 +27°C° 0.4 mm 8 m/S 762 mmHg 79%
    20:00 +27°C° 0.4 mm 8 m/S 762 mmHg 78%
    21:00 +27°C° 0.4 mm 9 m/S 763 mmHg 78%
    22:00 +27°C° 0.1 mm 8 m/S 762 mmHg 77%
    23:00 +27°C° 0.1 mm 7 m/S 762 mmHg 76%

    23 Februar, Sonntag

    Zeit Temperatur Niederschläge Wind Luftdruck Luftfeuchtigkeit
    00:00 +27°C° 0.1 mm 7 m/S 762 mmHg 75%
    01:00 +27°C° 0 mm 6 m/S 761 mmHg 75%
    02:00 +27°C° 0 mm 6 m/S 761 mmHg 74%
    03:00 +27°C° 0 mm 5 m/S 760 mmHg 74%
    04:00 +27°C° 0.1 mm 5 m/S 761 mmHg 73%
    05:00 +27°C° 0.1 mm 5 m/S 761 mmHg 73%
    06:00 +27°C° 0.1 mm 5 m/S 761 mmHg 72%
    07:00 +27°C° 0.1 mm 5 m/S 761 mmHg 72%
    08:00 +27°C° 0.1 mm 5 m/S 762 mmHg 72%
    09:00 +27°C° 0.1 mm 5 m/S 762 mmHg 72%
    10:00 +27°C° 0.1 mm 5 m/S 762 mmHg 73%
    11:00 +27°C° 0.1 mm 5 m/S 761 mmHg 73%
    12:00 +27°C° 0.1 mm 6 m/S 761 mmHg 74%
    13:00 +27°C° 0 mm 5 m/S 760 mmHg 73%
    14:00 +27°C° 0 mm 5 m/S 759 mmHg 71%
    15:00 +27°C° 0 mm 4 m/S 759 mmHg 70%
    16:00 +27°C° 0 mm 4 m/S 759 mmHg 69%
    17:00 +27°C° 0 mm 4 m/S 759 mmHg 68%
    18:00 +27°C° 0 mm 3 m/S 759 mmHg 68%
    19:00 +27°C° 0 mm 3 m/S 759 mmHg 68%
    20:00 +27°C° 0 mm 3 m/S 759 mmHg 67%
    21:00 +27°C° 0 mm 3 m/S 760 mmHg 67%
    22:00 +27°C° 0 mm 3 m/S 759 mmHg 67%
    23:00 +27°C° 0 mm 3 m/S 759 mmHg 68%

    24 Februar, Montag

    Zeit Temperatur Niederschläge Wind Luftdruck Luftfeuchtigkeit
    00:00 +27°C° 0 mm 3 m/S 759 mmHg 68%
    01:00 +26°C° 0 mm 3 m/S 758 mmHg 69%
    02:00 +26°C° 0 mm 3 m/S 758 mmHg 69%
    03:00 +26°C° 0 mm 3 m/S 757 mmHg 70%
    04:00 +26°C° 0 mm 3 m/S 758 mmHg 70%
    05:00 +26°C° 0 mm 3 m/S 758 mmHg 70%
    06:00 +26°C° 0 mm 3 m/S 758 mmHg 70%
    07:00 +26°C° 0 mm 4 m/S 759 mmHg 70%
    08:00 +26°C° 0 mm 4 m/S 759 mmHg 70%
    09:00 +26°C° 0 mm 4 m/S 760 mmHg 70%
    10:00 +26°C° 0 mm 3 m/S 759 mmHg 70%
    11:00 +26°C° 0 mm 3 m/S 759 mmHg 70%
    12:00 +26°C° 0 mm 3 m/S 758 mmHg 70%
    13:00 +27°C° 0 mm 3 m/S 757 mmHg 70%
    14:00 +27°C° 0 mm 4 m/S 756 mmHg 70%
    15:00 +27°C° 0 mm 5 m/S 756 mmHg 70%
    16:00 +27°C° 0 mm 5 m/S 756 mmHg 71%
    17:00 +27°C° 0 mm 6 m/S 756 mmHg 71%
    18:00 +27°C° 0 mm 6 m/S 756 mmHg 72%
    19:00 +28°C° 0 mm 6 m/S 756 mmHg 73%
    20:00 +28°C° 0 mm 6 m/S 757 mmHg 74%
    21:00 +28°C° 0 mm 7 m/S 757 mmHg 75%
    22:00 +28°C° 0 mm 7 m/S 757 mmHg 77%
    23:00 +28°C° 0 mm 7 m/S 757 mmHg 78%
    Mehr zeigen